Theta_e
283 283 283 282 282 282 281 281 281 281 280 280 280 279 279 280 280 279 279 278 278 278 278 277 278 278 278 279 279 279 279 279 279 279 279 279 279 278 279 278 278 279 279 279 280 280 280 280 281 281 281 281 282 282 282 282 283 283 282 281 281 281 281 280 280 281 284 284 285 285 284 282 283 283 283 284 284 285 287 286 286 286 286 286 287
281 282 281 281 281 280 280 279 279 280 279 279 280 280 279 279 279 279 278 279 279 279 279 278 278 278 278 278 278 278 278 278 278 278 278 278 279 280 279 278 278 278 278 278 279 280 280 279 280 280 281 280 281 281 282 282 282 282 282 282 281 281 281 281 281 281 281 284 281 283 282 281 283 281 283 284 284 284 283 284 285 285 286 286 286
279 279 279 279 279 278 278 279 278 278 278 278 278 279 279 279 278 278 279 279 279 278 279 279 279 278 278 278 278 278 278 278 278 278 278 278 278 278 279 278 278 278 278 278 278 279 279 279 279 280 281 280 280 280 281 281 282 281 282 282 281 282 282 282 281 281 281 282 284 283 284 282 283 283 282 284 284 285 284 284 284 285 285 286 285
279 279 278 278 278 278 278 277 277 277 277 278 277 278 278 277 277 277 278 278 278 278 277 278 278 277 278 278 278 278 278 278 278 278 278 278 278 278 278 278 278 277 278 278 278 278 278 278 279 279 279 279 279 280 280 280 280 280 281 281 281 282 282 282 282 281 281 281 282 282 283 282 282 282 282 283 283 283 283 284 284 284 284 285 285
278 278 278 278 278 277 277 277 276 276 276 277 277 277 277 277 277 277 277 277 277 277 278 277 277 277 278 278 278 278 278 278 278 278 278 278 277 277 278 277 278 278 278 278 279 278 278 278 279 279 279 279 279 279 279 279 280 280 280 281 281 281 282 282 282 282 281 281 281 283 283 283 282 282 281 282 282 282 282 283 283 284 284 284 284
277 277 277 277 277 276 276 276 276 276 276 276 277 277 277 277 277 277 277 277 277 277 277 277 278 277 277 278 277 278 278 278 278 278 278 278 277 277 277 277 277 277 278 278 278 278 278 278 278 279 278 278 279 279 279 279 279 279 279 280 280 281 281 281 281 281 281 281 281 281 282 282 282 282 281 281 282 282 282 282 282 282 282 283 283
277 277 276 276 276 276 276 276 276 276 276 276 276 276 276 276 276 276 277 276 276 276 277 277 277 277 277 277 277 277 277 277 277 277 277 277 277 277 277 277 277 277 278 278 278 278 278 278 279 279 279 279 279 279 279 279 279 279 279 280 280 280 280 280 280 280 280 280 281 281 281 282 282 282 282 281 282 283 282 282 281 282 282 282 283
277 277 277 277 277 276 276 276 276 276 276 275 276 276 276 275 276 276 276 276 276 276 276 276 277 276 276 276 277 277 276 277 277 277 277 277 277 277 277 277 277 277 278 278 278 278 279 279 279 279 279 279 279 279 279 279 279 279 279 280 279 279 279 279 280 280 280 280 280 280 281 281 281 280 281 280 280 281 281 281 281 282 282 282 282
276 276 276 276 276 276 276 276 276 276 276 276 276 276 276 275 275 275 275 275 276 276 276 276 276 276 276 276 276 277 277 277 277 277 276 276 276 276 277 277 277 278 278 278 278 279 279 279 279 279 280 281 283 283 283 283 281 279 280 280 279 279 279 279 279 279 279 279 279 280 280 280 281 281 280 278 279 281 283 281 281 282 283 282 282
275 275 275 275 275 275 275 275 275 275 275 275 275 274 274 274 274 274 274 274 274 274 274 274 274 274 274 274 275 275 275 276 278 280 280 279 279 279 279 278 278 278 277 277 278 278 278 279 279 282 282 283 283 284 284 285 285 284 282 281 280 279 279 278 278 279 279 278 279 279 279 279 280 281 281 281 281 281 282 281 281 282 282 281 282
274 274 274 274 274 274 274 274 274 273 274 273 272 272 272 272 272 271 271 271 271 272 272 272 272 272 272 272 272 273 273 274 277 279 280 281 279 277 277 277 277 277 277 277 276 277 277 278 278 280 281 281 281 283 284 284 284 285 285 286 285 282 280 279 278 279 278 278 279 279 279 279 280 281 281 281 281 280 281 282 281 282 281 280 279
273 273 273 273 273 273 273 272 272 271 271 270 270 269 269 269 269 269 269 269 270 270 270 270 271 271 271 271 271 271 271 274 277 277 278 279 279 276 276 276 276 276 276 276 276 276 276 277 277 278 278 279 279 279 281 283 283 284 284 285 285 286 286 283 280 279 279 278 278 279 279 279 280 281 281 281 281 281 280 281 281 281 281 281 281
272 272 272 272 272 272 271 269 268 268 268 268 268 267 267 267 266 267 267 267 268 268 268 268 268 269 269 268 269 269 269 273 274 275 277 277 278 277 274 274 274 274 274 274 275 275 275 276 276 277 277 279 279 278 278 278 281 282 283 284 284 285 286 286 287 284 283 280 279 279 280 280 280 281 282 282 282 281 279 280 280 281 281 281 282
270 270 270 270 270 270 268 267 267 266 266 266 265 265 264 264 265 265 266 266 266 266 266 266 266 266 267 267 267 267 267 269 273 274 275 276 276 276 273 273 273 273 273 273 273 273 274 274 274 275 275 276 276 277 277 277 277 278 278 278 279 280 283 284 284 285 285 284 282 281 282 282 281 282 283 283 282 281 280 280 280 280 281 281 283
269 270 269 269 268 266 266 265 265 264 264 264 263 263 263 263 263 264 264 264 264 263 263 263 264 264 264 264 264 264 264 269 272 273 274 274 275 275 272 272 271 271 271 271 271 272 272 273 273 273 274 274 275 276 276 276 277 277 277 277 278 278 279 279 279 280 281 281 282 283 284 284 284 284 284 284 283 283 283 282 282 282 282 283 283
268 268 267 266 265 266 264 263 263 262 262 262 261 262 262 262 261 262 262 262 262 263 263 263 262 262 262 262 262 262 263 269 270 271 272 273 274 271 270 269 269 269 269 270 270 271 271 271 271 272 272 273 275 278 278 276 276 276 276 276 277 278 278 281 283 283 281 280 281 281 282 284 287 285 285 284 284 284 284 284 283 283 282 281 280
267 266 265 265 264 264 263 262 261 261 261 260 260 260 261 260 260 261 260 261 261 261 261 261 261 261 261 261 261 261 261 265 269 270 271 273 272 268 268 268 268 268 268 269 269 270 270 270 271 271 271 271 275 278 279 279 275 275 275 276 276 277 277 279 282 284 285 285 286 286 286 286 287 288 289 290 287 285 283 282 282 282 281 279 280
265 264 264 263 263 262 262 261 260 260 259 259 259 260 260 260 260 260 260 259 259 260 260 260 260 260 260 260 260 260 261 264 268 269 271 271 271 268 267 267 267 267 268 269 269 270 270 273 273 272 272 272 276 278 279 277 275 275 275 275 275 276 277 279 279 280 283 284 284 285 286 287 287 288 288 289 289 289 285 282 283 283 280 280 279
264 263 263 263 262 261 261 260 260 259 259 259 259 259 259 259 260 260 259 259 259 259 259 259 258 259 259 259 262 261 260 262 267 268 269 270 269 267 267 267 266 266 267 267 268 268 268 270 272 272 271 272 276 277 278 277 275 275 275 275 274 274 276 278 277 277 277 278 279 280 281 283 284 284 285 288 288 288 287 286 286 284 281 281 281
263 263 263 262 260 260 260 259 259 258 258 258 258 258 259 259 259 259 258 258 258 258 258 258 257 258 259 259 259 260 260 260 262 268 269 270 271 267 267 266 265 265 266 266 266 267 267 268 269 273 274 275 276 277 277 277 275 275 275 274 274 274 276 276 277 278 278 279 279 279 279 280 280 281 282 283 284 285 286 286 286 285 283 282 282
262 262 261 260 259 259 258 258 258 258 258 258 258 258 258 258 258 258 257 257 257 257 257 257 257 258 258 259 259 259 260 260 261 267 268 270 271 270 266 266 266 266 266 266 266 266 267 268 269 272 274 274 275 275 276 276 276 273 273 273 274 276 278 276 276 278 276 277 278 279 279 279 279 280 280 281 282 283 284 285 286 286 285 283 282
261 259 259 258 258 258 257 257 257 257 257 257 257 257 258 257 257 257 257 257 256 256 256 257 257 257 257 258 258 259 260 262 261 265 268 269 270 271 268 267 268 267 267 267 267 268 268 268 268 271 274 274 275 275 276 276 277 274 273 277 278 279 276 276 277 277 277 278 278 278 278 278 278 279 279 280 280 281 282 283 284 285 285 286 284
260 258 258 257 257 256 256 256 256 256 256 256 256 256 257 256 256 256 256 256 256 255 256 256 256 256 256 257 258 258 259 260 264 263 267 270 271 271 272 270 272 269 268 267 267 268 268 269 269 272 274 274 275 276 277 277 276 275 277 278 278 278 278 275 276 275 275 276 276 276 278 279 278 278 279 279 280 281 281 282 283 283 284 285 286
257 256 256 256 255 255 255 255 255 255 255 255 255 255 255 256 256 256 256 256 255 255 255 255 255 255 255 256 257 258 259 259 262 266 266 269 270 272 272 273 273 270 269 268 268 269 268 268 269 273 275 276 276 277 277 276 274 276 277 277 277 276 274 274 273 273 274 274 274 274 275 277 279 279 279 280 280 280 281 281 282 282 283 284 285
255 254 254 254 254 254 254 254 254 255 255 255 255 255 255 255 255 255 255 255 255 254 255 255 254 254 255 255 256 257 258 259 259 262 267 269 270 271 272 272 273 273 269 269 269 269 271 274 275 276 275 276 276 276 274 274 275 275 276 276 275 272 272 272 272 272 271 271 272 273 275 277 278 279 281 281 281 281 280 280 281 282 282 283 284
253 253 254 254 254 254 254 254 254 254 254 255 254 255 255 255 255 255 255 255 254 254 254 254 254 254 254 255 256 257 259 259 260 260 263 265 267 269 271 272 272 272 272 270 273 274 275 275 275 275 274 273 270 270 270 271 274 275 275 275 271 271 270 270 270 269 269 271 272 272 274 276 278 279 281 281 281 280 280 280 280 280 281 281 281
253 253 253 254 254 254 254 254 255 255 254 255 255 255 255 255 255 255 255 254 254 254 254 254 255 255 256 257 258 259 260 261 262 263 263 263 264 265 266 266 269 271 269 268 270 268 269 270 270 272 273 274 274 274 274 273 271 270 269 269 269 269 269 269 269 269 270 270 271 273 274 276 279 279 279 280 281 281 282 281 280 280 280 280 280
253 253 253 253 254 254 254 256 256 255 255 255 255 255 255 255 254 254 255 255 255 255 255 256 257 257 258 259 259 260 262 263 264 264 265 265 265 266 266 266 266 266 266 267 267 267 268 270 271 270 269 269 269 269 268 268 269 269 269 269 269 269 271 272 272 271 271 272 272 273 274 275 275 277 279 280 281 281 282 281 280 280 280 279 277
253 252 253 253 253 255 255 255 255 255 255 255 255 255 255 255 255 256 258 258 258 257 257 257 258 259 260 260 261 262 263 263 265 269 268 271 269 269 268 268 268 268 270 273 271 270 270 269 268 268 267 267 267 267 267 267 267 268 268 268 268 268 268 268 268 268 270 271 271 272 273 275 275 277 278 279 280 280 282 281 280 280 279 279 277
252 252 253 253 253 254 255 255 254 255 255 255 255 255 259 262 262 260 260 264 267 268 268 264 265 265 265 266 266 264 264 266 271 273 273 273 272 273 273 274 274 273 274 275 273 269 267 267 266 266 266 265 265 264 264 264 264 265 265 268 267 267 267 267 268 268 270 271 271 272 273 274 274 276 277 278 279 280 281 280 279 279 278 276 276
253 253 253 253 254 255 255 254 255 254 255 255 254 254 254 256 262 264 265 265 266 268 268 269 269 270 267 265 267 270 271 271 272 272 273 273 273 274 273 273 274 275 275 271 269 267 266 264 264 263 263 262 262 262 263 263 263 263 263 264 265 266 267 267 267 268 269 270 271 273 273 274 274 276 277 278 278 279 279 279 279 278 277 276 275
252 253 253 253 255 255 255 255 255 254 254 254 254 254 254 254 255 261 263 264 266 266 267 268 268 268 269 268 266 265 268 271 272 272 272 273 273 273 274 274 275 275 274 274 267 264 263 261 261 261 261 261 261 262 262 261 262 262 263 263 264 265 266 266 267 268 268 269 270 270 271 272 273 275 278 278 278 278 277 277 277 277 277 277 276
252 252 253 254 254 255 255 254 254 254 253 254 254 254 254 254 253 254 257 262 264 265 265 266 266 267 268 268 269 269 269 270 271 271 271 272 273 273 274 274 273 273 271 266 262 261 260 260 260 260 261 260 261 261 261 262 262 262 263 263 264 265 266 267 268 268 268 268 269 270 271 272 273 275 277 278 277 277 276 276 276 276 276 275 275
251 252 253 254 254 254 254 254 254 254 254 254 254 254 254 254 254 255 254 255 256 259 262 264 265 266 266 267 268 269 269 269 270 270 271 272 272 271 271 267 268 269 266 262 261 260 260 260 261 261 261 262 262 262 262 262 263 263 263 264 264 265 265 267 267 267 268 269 269 271 272 272 273 275 276 275 276 276 275 276 276 275 275 275 275
252 254 256 256 254 254 254 254 254 254 254 254 255 255 255 255 255 255 254 254 254 254 255 257 260 264 263 265 267 268 268 269 269 270 271 270 269 269 266 259 258 259 260 260 260 260 260 261 261 262 262 262 262 263 262 263 263 263 264 264 265 265 265 266 266 268 268 269 269 270 271 272 274 276 276 274 274 274 274 274 274 275 274 274 274
251 253 253 254 253 254 254 254 254 254 255 255 256 255 255 255 254 254 255 255 255 254 255 256 257 261 264 265 266 266 267 268 269 269 268 267 267 266 257 256 257 257 258 259 259 260 261 261 261 261 261 262 262 262 263 263 263 264 265 265 265 266 266 267 268 268 269 270 271 271 272 273 274 275 275 275 275 274 274 273 273 273 274 274 274
251 251 253 253 254 253 254 254 255 255 257 256 255 254 254 254 255 254 254 254 254 255 255 255 256 257 260 258 260 264 267 268 268 266 265 265 266 260 256 257 256 257 257 258 258 259 259 259 260 260 260 260 261 261 262 262 263 264 265 265 266 266 266 267 268 268 268 269 269 270 271 272 274 274 274 274 274 274 274 273 273 272 273 273 273
252 251 252 253 254 255 255 255 255 256 255 254 254 253 253 254 254 254 254 254 255 255 254 254 256 255 255 256 260 260 262 266 265 262 261 261 258 256 256 256 257 256 256 257 258 258 258 259 259 259 260 260 260 261 261 262 262 263 264 265 266 266 268 268 269 269 270 270 270 272 273 274 275 275 274 274 273 273 272 272 272 272 272 272 272
250 254 256 256 257 256 256 255 254 253 253 253 253 253 253 254 254 254 254 253 253 253 254 254 254 255 255 257 257 261 263 259 257 255 256 256 256 256 256 256 256 256 257 257 257 258 258 258 259 260 260 260 260 260 261 261 262 263 263 264 265 266 267 268 268 269 269 269 270 271 272 273 274 274 274 274 274 273 272 272 271 271 271 271 271
252 251 254 256 255 255 255 254 253 252 252 252 252 253 253 253 253 253 253 253 253 253 253 254 254 255 256 257 259 262 260 258 256 255 255 256 256 256 256 256 256 256 256 257 257 257 258 258 259 259 260 260 260 261 262 262 263 264 264 265 265 266 268 269 269 269 269 270 270 271 273 274 274 274 274 274 274 273 272 271 271 271 271 271 270
252 253 254 255 255 254 253 252 252 251 252 252 252 252 252 253 253 253 252 252 253 253 254 254 254 255 256 260 265 265 260 257 255 255 255 256 256 256 256 256 257 257 257 257 258 258 258 259 259 260 260 261 262 262 263 263 264 265 265 266 267 267 269 270 270 270 270 271 271 272 273 274 273 273 272 272 273 272 271 271 270 270 270 270 269
252 253 253 253 253 252 251 251 252 253 252 252 251 251 252 253 253 252 253 253 253 253 254 254 254 255 258 261 263 264 259 256 255 255 256 256 256 256 257 257 257 257 258 258 258 259 259 260 261 261 262 262 263 263 264 264 265 265 265 266 268 269 270 270 271 271 271 271 272 273 273 273 272 272 272 272 270 269 269 269 270 269 269 269 268
253 252 252 252 251 250 250 251 251 250 251 251 251 253 253 253 252 252 252 252 253 253 254 254 254 255 255 260 259 260 255 254 256 255 256 256 256 257 257 257 258 258 259 259 260 260 261 261 261 262 263 263 264 264 264 264 265 265 265 266 267 268 269 270 270 271 271 271 271 271 271 271 271 270 270 269 269 269 269 269 269 268 268 268 268
251 250 250 250 250 250 251 250 250 251 250 252 253 252 252 252 251 251 251 251 252 253 253 253 254 254 254 255 256 254 254 254 254 255 256 256 256 256 257 257 258 258 259 260 260 261 262 262 262 263 264 265 265 265 265 266 266 265 265 265 266 266 266 267 268 268 269 269 269 269 269 269 269 269 269 269 269 268 268 268 268 268 267 267 267
247 248 248 248 249 249 250 250 250 250 252 251 248 249 251 249 250 251 251 252 253 253 253 253 253 253 253 253 253 253 253 253 254 255 255 255 255 256 257 257 258 258 259 259 260 261 262 262 263 263 264 265 265 266 266 266 266 266 266 266 265 265 265 266 267 268 269 269 268 268 268 268 268 268 268 268 268 268 267 267 267 267 266 266 265
248 247 248 248 249 249 250 248 250 249 248 249 249 249 249 250 249 250 251 252 252 253 252 252 252 252 252 252 252 253 253 253 253 254 254 254 255 255 256 257 258 258 258 259 260 260 261 262 263 263 264 264 265 266 266 266 266 267 267 266 266 266 266 267 267 268 268 268 268 268 268 268 268 268 268 268 267 267 267 267 267 266 266 265 265
246 247 248 248 248 249 249 250 249 248 247 248 248 248 249 249 250 251 251 252 252 252 251 251 251 251 251 251 251 252 253 253 253 253 253 253 254 254 255 256 257 257 258 258 259 259 260 262 262 263 264 265 266 266 267 267 267 267 267 267 267 267 267 267 267 267 267 267 267 267 267 267 267 267 267 267 267 267 266 266 265 265 265 265 265
246 247 247 248 248 248 248 248 249 250 248 248 248 249 250 250 249 250 249 250 250 250 250 250 250 250 251 251 251 252 252 252 253 253 253 253 253 254 255 256 256 257 257 257 258 259 260 260 262 263 264 265 265 266 267 267 267 267 267 267 267 267 267 267 266 266 266 266 267 267 266 266 266 266 266 266 265 265 265 264 265 265 265 265 265
246 246 246 247 248 249 248 248 248 247 247 247 248 248 248 248 248 248 249 249 249 249 248 249 249 250 250 250 251 251 252 252 252 252 252 253 253 254 255 256 256 257 257 257 257 258 258 260 261 262 263 264 265 266 267 268 268 268 267 267 267 267 267 267 267 266 266 265 265 265 265 265 264 264 264 264 264 264 264 264 264 264 264 264 263
246 247 247 248 248 248 248 247 246 245 246 246 247 246 248 248 247 248 248 249 248 249 248 249 249 249 249 250 250 251 251 251 251 252 252 252 253 253 254 255 256 256 257 257 257 258 258 259 260 262 263 264 265 266 267 268 268 269 269 268 267 267 267 267 267 267 266 265 265 265 264 264 263 263 263 263 263 264 264 263 263 264 263 262 261
247 248 247 247 247 247 246 244 244 244 244 245 245 245 247 247 247 247 247 247 247 248 249 248 248 249 249 249 250 250 250 251 251 252 252 252 252 253 254 254 255 256 256 257 257 257 258 259 260 261 262 263 264 266 267 268 268 268 268 269 269 268 268 267 266 266 266 266 265 265 264 263 263 263 263 263 263 263 263 263 262 261 261 261 260
Wind_Speed
2 2 2 1 1 1 2 2 3 2 3 1 2 3 2 2 2 2 3 4 2 3 3 4 4 4 5 6 6 7 8 10 9 8 8 9 8 6 5 5 6 6 5 8 6 6 7 7 8 7 5 5 6 6 6 7 6 6 6 6 7 7 6 8 12 16 12 5 9 8 6 4 6 6 9 8 8 7 9 9 9 9 10 10 10
1 1 1 1 1 2 3 3 3 3 4 4 4 4 4 3 3 3 3 5 2 4 4 4 4 4 4 6 5 6 6 6 7 6 8 9 10 8 8 9 9 9 7 7 8 7 7 8 9 9 7 6 6 6 7 7 7 7 7 6 7 8 6 7 11 12 18 7 6 6 6 3 8 3 7 9 9 7 9 10 8 8 10 10 10
1 2 3 3 4 3 3 4 3 4 4 5 4 5 5 5 4 4 5 5 4 4 5 5 6 6 6 7 7 7 8 8 7 7 8 8 8 9 7 7 8 9 10 10 9 7 7 8 9 8 7 8 8 7 6 7 6 7 9 7 8 9 7 8 9 13 15 14 7 8 7 5 8 8 6 8 8 8 9 9 8 8 8 10 9
2 2 3 4 4 4 4 4 4 4 4 5 4 5 5 5 5 5 6 5 6 6 5 6 6 6 7 8 7 8 8 8 8 7 8 8 9 10 9 9 8 8 8 9 10 9 9 9 9 8 6 8 9 9 8 7 7 7 8 8 8 9 9 7 9 11 12 14 11 7 7 7 8 7 6 7 8 7 8 9 6 8 8 7 9
4 4 3 4 5 4 5 4 3 4 4 4 4 5 5 5 4 4 5 5 5 5 6 5 6 6 7 8 8 8 9 9 9 9 8 7 7 9 9 9 9 10 9 10 9 9 9 10 11 9 7 8 9 9 8 9 8 7 8 8 8 8 8 7 9 9 11 14 14 8 5 8 7 8 5 8 7 7 7 9 9 9 9 8 7
1 1 1 1 3 3 3 3 3 4 4 4 5 5 6 5 6 5 5 7 7 5 6 6 6 7 8 8 8 9 9 9 9 10 9 8 8 8 8 8 9 9 10 10 10 9 9 10 10 10 9 9 10 10 9 10 9 9 9 9 9 8 9 9 8 10 11 13 13 13 7 8 9 7 6 7 9 9 8 8 6 6 8 8 9
1 1 1 1 2 2 3 3 3 3 3 4 4 4 4 4 4 5 5 5 6 6 6 6 6 6 8 8 8 9 10 9 9 9 9 8 9 9 10 10 10 10 10 11 11 11 11 10 11 10 10 10 11 11 10 10 9 11 10 10 9 8 9 9 9 9 10 12 12 11 11 8 8 11 7 7 9 10 11 9 9 6 7 9 11
1 2 1 1 1 3 3 3 4 4 3 3 3 3 3 4 4 4 4 5 5 6 6 7 7 5 7 7 8 7 8 10 9 8 8 8 9 9 10 11 11 11 11 11 11 12 12 12 12 12 12 11 11 11 10 11 9 10 9 9 9 9 9 9 9 9 10 11 11 12 10 9 7 7 5 2 6 8 7 8 12 11 9 8 10
3 3 4 4 4 4 4 4 4 4 5 5 5 5 5 5 5 5 5 6 6 6 7 7 9 9 9 8 9 8 9 9 8 6 6 8 7 8 10 10 11 11 12 12 12 12 12 12 12 12 14 16 17 16 15 14 11 11 11 9 9 9 10 9 9 9 9 10 12 10 11 11 10 9 8 7 9 12 7 6 10 12 9 7 8
4 4 5 4 4 4 4 4 4 5 5 6 6 7 7 7 8 8 8 7 8 8 8 8 8 9 11 11 10 9 9 8 10 18 17 12 11 10 10 11 11 12 13 13 14 13 13 12 12 18 21 21 22 21 22 23 22 16 14 12 10 10 10 10 10 10 10 11 12 12 12 12 11 10 10 9 8 7 9 7 11 12 7 7 10
5 5 4 3 3 4 4 4 4 5 5 6 6 7 8 8 9 9 10 9 10 10 9 11 10 9 10 11 12 11 10 9 19 20 21 23 15 11 12 12 12 12 12 13 14 14 13 12 12 13 15 18 18 23 22 24 24 25 25 23 18 14 12 13 12 11 11 11 11 12 12 14 15 11 10 9 8 8 10 9 10 9 10 9 13
4 4 4 5 4 5 4 4 5 5 5 6 6 6 7 7 8 8 9 10 10 9 10 10 10 10 10 11 12 12 12 16 22 22 23 24 22 15 12 12 12 12 12 13 12 12 12 12 11 10 10 13 13 14 17 20 23 24 25 25 26 28 25 18 14 13 12 12 13 14 12 14 14 12 9 8 9 8 8 9 10 10 11 11 11
3 4 4 4 5 5 5 5 5 5 5 6 6 7 8 9 8 9 10 9 9 10 11 11 11 10 10 11 12 12 12 19 22 24 24 25 25 21 11 11 12 12 13 12 13 12 11 12 12 11 11 19 16 13 14 15 17 22 24 26 26 27 27 28 27 19 13 14 13 15 14 13 15 14 11 10 7 9 6 9 9 11 11 12 12
3 3 3 3 4 5 6 5 6 6 6 7 8 8 8 9 8 8 8 9 9 10 9 11 10 9 9 10 12 13 13 17 23 25 24 25 26 22 13 13 12 13 14 14 13 14 14 12 13 13 12 11 11 14 14 15 15 15 14 14 14 16 21 24 26 28 23 17 15 17 17 14 15 14 14 8 8 9 9 10 9 10 11 13 14
3 3 3 3 4 3 5 4 5 6 7 7 8 8 8 9 9 8 8 9 10 10 10 10 10 8 9 9 11 13 13 21 23 25 24 25 26 23 14 12 11 12 13 13 14 14 14 14 14 16 13 14 12 17 16 15 15 15 15 16 15 15 15 15 15 14 14 14 16 17 18 17 16 17 16 11 11 11 10 11 10 10 10 10 11
4 2 3 3 4 5 4 5 5 6 7 7 7 9 8 8 9 9 9 9 8 7 8 7 9 10 9 10 12 14 13 22 23 24 25 25 27 16 14 13 12 12 13 11 11 12 13 13 13 14 16 15 21 30 27 21 19 19 19 17 16 15 16 15 21 20 18 16 15 16 16 16 18 17 15 13 11 10 10 9 7 7 8 10 11
2 2 3 4 4 4 4 6 6 6 6 7 8 7 8 9 8 6 10 9 9 9 9 9 8 10 12 10 11 14 14 18 22 25 25 26 21 13 14 13 13 13 13 12 13 12 12 12 12 14 14 16 22 27 28 26 18 19 19 18 17 16 17 15 21 27 29 30 31 31 31 32 32 31 30 28 18 12 10 9 12 10 11 12 12
1 2 3 3 4 4 4 5 7 7 7 7 8 8 7 7 7 6 8 11 11 9 9 10 9 7 10 11 10 13 15 18 24 25 26 26 22 15 13 13 14 14 15 15 13 13 15 23 21 17 17 17 23 27 28 23 17 18 18 18 18 18 17 15 12 14 23 28 32 34 33 32 32 34 33 32 30 20 13 15 13 10 12 11 14
2 2 3 3 4 4 4 5 6 7 8 8 7 9 9 8 8 7 7 8 10 9 8 9 9 8 7 11 18 17 14 17 23 24 26 26 20 14 13 12 14 14 13 14 13 13 15 16 24 24 22 23 30 28 29 23 17 17 16 17 18 20 17 14 14 16 16 16 15 16 18 23 22 19 19 32 30 23 16 15 12 12 12 13 13
2 2 2 4 3 4 4 5 6 7 9 9 8 8 8 8 8 8 9 7 9 9 8 8 10 10 8 10 11 11 13 14 16 25 25 25 25 16 12 12 13 15 14 14 14 13 14 14 17 22 24 24 25 27 27 28 20 17 15 15 17 20 15 16 18 17 17 16 15 15 17 15 15 15 15 16 17 17 17 15 14 13 13 13 12
2 2 3 4 4 5 4 4 8 7 7 9 9 8 7 9 10 9 10 9 8 9 9 9 10 10 8 10 10 11 10 14 15 24 25 25 26 22 12 13 13 14 13 14 13 12 10 11 11 18 25 28 28 29 28 28 26 20 18 17 17 20 22 16 18 26 20 20 19 17 16 15 15 14 14 14 13 13 14 15 15 14 14 13 13
2 3 3 4 5 5 6 6 6 7 7 7 9 10 8 8 9 9 9 9 10 10 10 8 10 10 9 8 10 11 13 20 16 21 25 26 25 27 17 13 15 14 14 12 12 13 14 13 12 19 26 26 27 28 30 28 29 19 18 27 32 35 26 18 15 13 15 16 16 16 16 15 15 14 13 13 13 13 13 13 14 15 14 14 14
4 3 4 5 5 6 6 6 8 6 7 7 9 11 9 8 9 8 9 10 10 11 10 9 10 10 10 8 9 9 10 12 21 18 23 26 26 26 27 22 26 18 14 13 14 14 14 14 13 24 28 29 29 29 29 31 26 19 29 30 29 32 28 15 14 12 11 11 13 14 16 16 15 14 14 13 12 13 12 12 13 13 13 13 13
3 4 4 5 6 6 6 7 7 7 7 8 8 9 10 9 8 7 8 9 9 10 8 9 9 10 9 11 9 9 9 10 15 23 21 26 26 27 26 27 27 17 14 12 12 12 11 12 15 27 29 29 30 29 29 27 21 28 29 30 30 27 15 13 10 12 12 14 14 12 14 15 15 14 13 12 12 12 12 12 12 12 12 11 12
4 4 5 6 6 7 6 6 7 7 7 7 8 8 9 7 9 6 7 9 9 10 10 8 9 10 9 11 11 10 10 10 10 15 24 25 26 27 27 28 27 27 18 13 14 13 19 29 31 30 29 29 31 30 25 25 29 28 28 28 26 13 10 11 12 12 11 14 14 14 13 14 14 15 14 12 12 11 10 10 10 11 11 12 11
4 5 6 6 7 7 7 7 7 7 7 6 7 7 8 9 8 8 7 9 8 9 10 8 9 9 10 11 11 11 11 10 10 10 12 16 19 25 29 28 28 28 27 21 27 32 31 31 33 32 29 25 18 14 12 13 23 28 29 27 13 11 11 10 13 12 13 12 14 15 13 10 13 12 15 14 12 12 11 10 9 10 10 10 10
5 5 6 7 6 6 7 7 7 5 5 5 5 6 7 7 7 8 9 9 9 9 10 9 9 10 11 11 11 12 11 10 10 10 10 10 11 13 15 16 23 25 19 15 19 18 22 23 19 24 23 29 29 27 25 23 18 15 11 10 10 10 9 11 11 12 12 12 13 13 12 12 12 14 15 15 15 12 11 11 10 10 9 9 9
5 6 7 6 6 6 7 8 8 7 6 5 7 7 7 6 7 8 10 10 9 10 10 10 10 11 12 13 13 12 12 11 11 11 12 12 12 11 12 12 11 10 12 12 13 14 14 17 20 14 13 12 12 10 10 10 11 11 10 9 9 10 14 21 20 14 13 11 11 10 14 12 15 13 15 15 14 12 11 11 11 10 9 8 8
4 5 6 6 7 6 6 6 7 7 8 7 6 6 9 8 8 9 11 10 8 9 11 13 14 14 12 9 9 8 11 11 9 15 18 23 20 16 12 11 9 10 12 21 15 10 8 9 8 9 8 10 9 9 8 9 9 9 11 10 9 9 10 7 11 12 12 12 14 14 13 14 15 13 13 16 15 11 10 10 10 10 7 8 10
4 6 5 6 6 6 6 6 6 7 7 8 9 8 10 17 14 10 11 18 23 24 20 14 12 11 11 10 10 10 9 12 24 30 28 28 29 31 28 29 28 22 25 32 21 11 8 8 8 8 10 9 11 11 10 9 9 10 9 13 13 10 10 11 10 11 12 13 13 14 11 13 13 13 15 16 14 11 11 11 9 9 8 8 8
5 6 6 6 7 7 7 7 7 6 7 8 7 9 11 12 17 18 18 20 21 24 23 25 26 24 17 13 13 24 26 27 28 27 28 28 29 29 30 30 30 30 29 19 10 7 9 9 10 10 10 10 10 12 11 11 10 10 10 9 9 11 13 11 11 10 13 12 13 11 13 12 14 15 18 15 13 10 8 9 8 8 9 8 8
5 6 6 6 7 7 6 7 7 7 7 7 7 8 9 12 14 15 16 19 22 22 23 24 24 23 24 22 18 13 20 25 27 27 27 28 27 28 29 30 29 28 26 22 11 9 8 10 11 11 10 11 11 11 10 9 10 10 10 10 10 10 11 11 10 11 11 11 11 13 12 13 14 17 17 13 11 8 8 8 8 8 8 8 9
6 6 6 7 7 8 7 6 6 6 7 8 8 8 8 9 12 15 15 16 20 22 20 20 21 23 24 24 25 22 22 23 27 27 26 26 27 26 26 28 25 23 22 11 7 10 9 9 10 11 10 11 12 11 11 11 10 10 9 11 12 10 9 13 14 13 12 13 13 13 12 13 14 17 12 9 9 8 8 9 8 8 8 7 7
5 5 5 6 7 6 6 6 6 7 6 7 7 8 8 8 10 11 14 15 14 13 13 17 20 24 23 23 22 22 22 24 24 24 24 24 24 24 24 19 23 20 14 8 8 8 9 9 10 10 10 11 11 10 10 11 11 11 11 12 11 12 12 12 11 13 11 13 13 13 13 13 14 14 7 4 4 5 8 9 9 9 8 8 8
5 7 11 9 5 6 6 6 6 7 7 7 7 8 8 9 9 10 11 12 13 14 13 10 12 19 20 19 20 23 23 24 24 23 23 23 23 23 21 12 13 12 9 6 8 8 9 10 10 10 9 11 11 10 11 12 11 11 11 11 11 10 10 11 11 11 11 11 12 11 12 12 14 12 8 4 4 4 4 4 4 7 8 7 7
5 5 4 6 6 5 6 6 6 6 7 7 7 7 8 9 9 9 10 10 11 13 13 11 9 12 20 18 20 22 25 24 22 22 22 21 21 20 11 10 10 9 10 9 8 10 10 11 10 11 12 12 11 11 11 11 12 12 12 11 12 11 11 10 12 11 11 11 11 11 12 12 12 8 4 2 8 8 5 5 4 4 5 6 7
4 4 4 5 5 6 6 6 5 6 8 8 8 8 8 8 8 8 9 9 10 10 11 13 14 11 8 6 13 21 22 20 21 19 19 19 20 11 6 7 8 10 10 10 11 10 9 9 9 11 11 12 12 13 12 13 14 13 15 13 11 12 11 12 11 11 10 10 10 11 12 12 10 7 3 1 0 2 5 6 5 4 5 6 6
5 4 4 5 5 6 6 5 6 9 7 6 6 6 7 7 7 8 9 9 9 10 11 11 10 10 13 14 14 11 14 18 18 12 11 13 10 7 7 7 8 8 9 9 9 9 10 10 10 10 11 11 13 12 11 13 11 12 12 13 11 11 18 17 18 14 10 9 9 10 9 10 8 6 4 4 3 3 3 3 6 7 6 6 6
3 6 9 11 9 6 5 5 6 5 6 6 6 6 8 7 7 7 8 8 8 9 9 9 9 10 11 12 13 14 15 12 13 13 12 9 8 7 7 8 7 8 8 9 10 10 10 11 11 11 11 12 11 12 10 12 11 11 12 11 13 12 13 11 11 9 8 7 8 9 9 9 8 6 5 5 5 5 6 6 5 5 6 6 6
4 3 5 10 6 6 5 6 6 6 7 6 6 5 6 7 7 7 7 8 9 8 8 8 9 9 10 11 11 12 12 12 11 11 12 12 11 10 9 9 9 9 10 11 10 10 11 11 10 10 11 10 11 10 11 9 11 11 12 11 10 11 12 9 8 8 7 7 8 9 9 8 6 5 4 5 5 6 7 7 6 7 7 6 5
3 4 4 6 7 6 5 6 5 6 6 6 6 6 6 7 7 7 7 7 8 7 8 8 8 8 9 14 22 20 10 9 10 10 10 11 11 11 11 10 10 10 10 10 10 10 11 11 11 11 10 10 10 10 11 11 11 11 12 11 10 10 10 10 8 7 7 7 8 8 8 7 5 4 6 5 4 4 3 4 4 4 4 5 6
4 4 3 4 5 4 5 6 6 7 6 7 5 5 7 7 6 6 7 7 8 8 8 8 8 7 12 22 20 22 12 8 8 9 9 9 9 9 9 9 9 9 10 10 11 11 11 11 11 11 11 12 12 12 12 12 12 12 11 13 11 9 9 7 6 6 6 6 7 8 8 6 5 3 2 2 4 5 5 5 5 5 5 6 6
3 3 3 5 4 4 5 5 6 6 6 5 5 5 6 6 6 7 7 7 6 7 7 8 8 8 9 15 17 17 8 7 7 9 8 9 9 9 9 9 10 10 10 10 10 9 10 10 11 11 11 12 12 12 11 12 11 11 11 11 12 12 9 7 5 4 5 6 6 4 2 2 1 3 4 4 4 5 5 6 6 5 6 6 7
2 3 4 3 4 4 6 5 6 6 5 5 5 6 6 6 6 6 6 6 7 6 6 7 7 9 9 10 11 9 8 8 8 8 9 9 9 9 9 9 10 10 10 10 10 10 10 10 10 11 11 10 10 11 10 10 10 10 9 9 10 10 9 8 7 5 5 4 4 4 3 3 4 4 3 4 5 6 6 6 6 6 6 6 7
1 2 3 3 4 4 6 5 6 6 6 5 4 4 6 5 6 6 6 7 8 7 6 6 7 8 9 9 9 9 9 8 9 9 9 9 9 9 9 10 10 11 11 11 11 11 11 11 11 11 12 11 10 11 11 10 10 9 10 10 8 8 8 8 8 8 6 4 4 5 5 4 4 4 4 4 4 5 6 6 6 7 7 7 7
1 1 3 3 5 6 6 6 7 5 4 4 5 5 5 5 5 5 7 6 7 6 6 7 7 7 7 8 8 9 9 9 9 8 9 9 9 9 9 9 10 10 10 10 11 12 11 11 11 11 12 12 11 10 10 11 11 10 10 10 10 9 9 9 9 9 8 7 4 4 5 6 6 5 5 5 5 6 6 7 6 6 7 7 7
1 1 1 3 4 6 7 6 5 4 3 4 4 4 5 6 5 6 7 7 7 7 6 6 6 7 8 7 8 8 9 8 9 9 9 9 9 9 9 9 10 10 10 10 10 10 12 12 12 12 13 13 12 11 10 10 10 10 10 10 10 11 10 9 9 9 8 8 7 5 5 5 6 6 7 6 6 6 7 7 7 8 7 7 7
1 1 2 4 4 5 6 5 5 5 4 5 4 5 6 6 6 6 6 6 6 6 6 6 6 6 7 7 7 7 8 8 8 8 8 8 9 9 9 10 10 9 9 10 10 10 11 11 12 12 12 13 13 12 11 10 10 10 10 10 11 12 15 15 9 10 9 8 8 7 6 6 6 5 6 7 7 7 8 7 7 7 7 7 7
1 1 2 3 4 5 6 5 5 4 4 4 4 5 6 5 5 6 6 6 6 6 6 6 7 7 6 7 7 7 8 8 8 8 8 8 9 9 9 9 10 9 9 9 10 10 10 11 11 11 12 12 12 13 12 12 12 10 10 10 14 20 18 20 13 11 12 9 8 8 7 7 7 7 7 7 7 7 7 7 7 7 7 7 7
1 2 3 4 5 5 6 5 4 4 4 4 5 5 5 6 5 6 6 6 6 6 5 5 6 6 7 7 9 8 8 8 8 8 9 9 9 9 9 9 9 9 9 9 9 10 9 10 11 11 11 11 12 12 12 12 12 12 11 12 16 17 18 18 18 18 11 8 8 7 7 7 7 7 6 6 6 7 7 7 7 7 7 8 7
2 2 3 4 5 5 5 4 4 4 4 5 4 5 5 5 6 6 5 6 6 6 6 6 6 7 7 7 7 7 8 8 8 8 8 8 8 9 9 9 10 9 9 9 10 10 10 10 10 11 11 11 11 11 11 11 12 13 16 19 19 18 19 17 13 16 18 12 8 8 8 8 8 8 7 7 7 7 8 8 8 7 7 7 7
Wind_Direction
33 49 42 28 27 317 287 311 313 337 326 2 358 321 319 315 294 280 316 309 303 313 311 305 300 305 310 313 316 317 323 324 328 333 333 329 328 323 316 320 316 308 307 307 307 313 313 308 303 294 285 282 274 274 271 267 269 264 257 256 258 251 240 252 263 276 277 207 266 269 262 238 270 221 250 252 258 251 241 239 234 231 233 235 236
341 338 56 70 317 307 315 314 318 328 337 324 334 319 318 309 291 322 304 295 292 296 297 299 294 293 299 297 298 302 301 303 308 317 318 321 320 324 326 326 322 315 314 305 305 306 304 304 299 300 304 291 284 277 270 277 272 272 270 252 254 260 233 246 264 268 280 270 258 283 286 211 261 199 229 251 252 251 248 245 234 228 234 235 235
312 356 346 345 323 334 328 313 328 312 324 310 317 310 304 303 299 295 289 288 303 293 292 296 297 301 301 298 301 302 302 303 305 310 309 310 309 308 310 311 310 310 312 306 302 300 297 291 288 289 298 298 291 280 274 268 265 263 266 260 259 259 249 236 256 271 275 279 260 268 268 253 241 257 232 244 248 243 250 251 240 237 234 236 239
302 322 316 307 307 324 309 310 331 320 313 293 299 288 294 291 296 297 279 292 292 291 294 291 295 294 292 294 293 293 298 296 297 298 297 299 301 302 305 307 300 295 290 292 296 296 290 291 287 284 283 284 284 286 280 269 263 260 261 261 255 259 256 243 243 258 274 282 274 255 264 265 264 258 256 255 261 258 248 258 250 245 245 235 235
349 341 352 319 319 327 314 328 319 304 286 286 277 282 284 286 289 279 285 284 276 283 284 276 281 282 283 284 290 290 290 292 294 293 291 287 288 292 296 297 296 294 291 287 282 282 281 277 281 285 279 275 277 277 278 278 269 260 258 261 257 256 261 250 252 253 267 272 279 267 240 257 255 264 236 255 261 253 253 251 249 248 250 243 243
231 249 234 241 276 300 293 312 312 308 308 311 308 306 309 311 307 308 300 295 295 288 283 290 282 284 286 285 284 286 286 285 285 288 289 289 284 283 284 282 282 283 285 285 283 278 275 275 275 274 271 266 270 273 271 272 275 270 265 263 259 257 261 259 253 258 261 268 274 284 259 256 269 253 241 228 253 263 262 255 256 248 252 258 243
318 350 308 302 310 326 338 340 330 321 315 304 304 305 302 297 299 293 293 286 289 293 289 285 285 279 282 285 284 285 287 284 283 284 286 286 283 283 282 281 279 279 278 279 281 280 276 274 274 271 268 264 267 268 272 269 266 265 264 267 266 264 263 262 260 259 261 268 273 269 275 258 244 267 249 220 235 245 257 268 260 235 235 236 253
128 117 115 102 39 2 360 344 347 338 324 319 314 315 317 316 310 302 305 306 301 301 304 304 300 294 284 283 282 281 282 285 285 282 279 277 278 274 274 277 280 278 277 275 276 276 277 276 275 274 270 269 266 268 264 267 264 266 262 262 262 263 261 263 265 261 263 267 267 278 271 273 260 244 273 223 254 263 240 241 257 257 243 230 237
69 60 41 33 11 354 349 352 351 347 340 344 347 345 342 332 326 324 322 318 316 313 312 310 310 309 304 298 299 296 291 290 292 294 287 283 270 270 275 276 277 281 281 279 276 275 273 272 272 272 271 269 263 259 259 255 263 272 266 259 261 259 261 261 260 260 262 263 270 269 273 272 263 264 250 228 232 248 252 197 248 253 254 251 246
55 36 29 12 358 353 350 349 349 346 350 351 349 345 341 338 334 330 326 322 319 317 315 313 309 308 310 310 307 303 298 296 303 307 307 303 303 302 296 291 287 283 282 282 279 275 272 272 270 270 272 272 272 269 268 267 262 254 261 268 264 260 258 259 260 257 258 262 263 268 272 268 266 255 254 245 242 250 256 233 246 258 256 253 263
38 31 9 0 350 354 356 351 352 357 353 348 346 343 337 335 329 324 321 322 320 318 318 314 312 314 314 312 310 306 302 302 311 313 312 312 311 305 298 294 289 286 282 280 281 282 278 273 272 272 272 272 273 273 271 270 268 267 264 258 253 251 261 260 255 252 256 255 259 262 262 269 268 261 253 259 245 231 240 238 244 255 253 250 261
27 11 359 359 359 357 357 3 1 352 351 345 338 334 329 326 322 317 315 318 317 316 313 310 313 318 314 311 306 304 304 308 314 315 313 312 308 303 299 294 292 288 286 282 280 280 281 280 276 273 269 271 274 275 272 268 269 268 266 264 264 261 253 249 255 258 248 250 253 252 256 257 266 265 260 247 251 246 235 240 238 240 248 246 249
29 9 357 354 349 1 11 3 349 346 343 338 331 329 326 319 316 318 314 314 314 313 314 316 313 317 315 311 308 307 305 311 315 313 311 309 306 304 295 288 287 286 285 282 282 282 283 283 282 275 272 278 280 279 279 279 274 272 271 270 265 262 263 260 254 251 253 252 249 253 245 252 257 259 251 244 240 250 232 237 233 239 241 246 247
36 3 359 350 18 17 6 355 344 337 335 332 329 324 321 314 313 312 310 313 313 310 311 310 311 313 314 313 308 306 305 312 312 310 310 308 305 303 293 289 284 282 284 285 286 285 284 285 286 284 282 278 274 277 278 277 278 276 272 266 264 261 259 258 259 256 254 253 250 251 251 244 249 255 255 240 236 241 236 242 229 236 237 241 246
12 2 12 28 24 4 2 344 335 328 326 323 321 316 313 313 315 316 315 312 313 312 313 314 312 314 314 313 307 302 303 309 310 310 308 305 303 303 295 290 286 284 282 281 283 283 284 283 282 283 284 281 276 280 280 279 277 274 271 268 264 263 260 258 253 252 252 250 252 253 256 254 252 251 256 247 234 241 237 240 239 239 243 251 257
344 5 25 10 4 356 350 336 325 320 316 314 311 310 311 312 315 318 311 306 301 302 302 304 307 311 312 311 305 300 300 307 308 307 305 304 304 301 295 290 286 281 278 277 278 281 284 285 288 288 288 287 287 287 286 285 283 281 278 275 272 268 264 255 255 252 249 248 249 251 254 255 254 252 251 249 243 242 249 254 257 253 249 247 249
342 23 360 353 354 350 343 328 318 313 311 309 307 307 311 312 310 309 304 303 305 307 305 304 308 307 306 304 301 297 298 306 308 306 305 304 304 298 292 286 284 285 284 284 281 275 269 266 267 273 275 276 282 285 286 284 281 277 274 273 271 268 266 263 260 262 263 260 258 254 254 254 255 256 254 250 242 231 241 246 243 235 239 246 249
31 4 340 342 342 334 323 315 309 308 307 304 305 303 303 298 295 302 298 303 302 303 304 302 299 297 298 298 297 297 298 303 305 304 303 302 300 297 295 292 289 290 293 292 294 294 294 297 297 297 296 293 294 291 288 286 277 272 271 273 275 272 269 268 271 270 265 265 264 262 262 260 256 256 255 252 249 240 228 237 238 231 236 233 245
6 337 320 327 318 312 304 302 301 302 302 300 302 302 303 299 297 296 287 289 291 298 298 297 294 290 285 287 297 297 294 297 302 301 300 299 299 292 289 287 289 291 295 294 293 293 294 296 294 292 289 289 290 289 287 285 280 279 277 273 270 267 267 273 269 266 262 258 257 258 259 259 258 256 256 255 251 245 233 234 234 230 232 234 238
321 322 306 306 297 295 297 297 296 298 300 300 299 296 299 300 298 298 294 288 291 294 291 289 290 291 289 287 288 289 290 291 296 298 298 297 297 295 288 288 290 291 289 289 293 289 285 283 284 285 288 292 294 295 296 293 292 290 285 277 272 270 271 272 268 270 272 267 264 258 256 254 254 251 251 250 248 241 238 231 229 227 229 234 231
312 302 300 293 289 290 292 292 294 292 287 293 297 296 297 296 299 298 297 297 290 290 292 288 287 287 288 284 285 286 285 290 293 296 296 296 296 296 288 283 283 284 284 283 278 281 280 281 288 294 295 292 290 289 288 287 286 284 283 285 285 287 287 278 271 268 265 264 261 259 256 251 249 246 244 244 241 235 231 229 226 224 224 228 229
301 295 291 291 291 293 292 290 284 286 290 292 295 293 292 289 290 294 294 295 295 292 293 290 289 288 285 281 284 282 286 289 290 291 293 294 295 293 291 284 284 282 281 275 282 288 292 293 288 287 289 289 289 288 287 286 284 280 275 277 280 283 284 285 286 283 273 268 261 255 251 246 246 243 240 239 236 232 228 225 225 224 222 224 224
293 292 295 292 291 291 289 287 287 285 285 285 284 289 291 291 287 286 291 294 293 292 293 292 292 293 291 284 281 278 279 279 286 287 290 293 294 294 292 292 291 290 288 289 289 285 285 285 283 287 288 287 285 284 284 286 288 286 287 289 288 287 287 281 283 288 290 286 282 275 266 254 243 239 237 237 235 230 229 224 224 223 223 226 227
302 300 292 289 289 287 283 283 279 278 278 280 278 280 287 286 286 288 289 291 294 295 291 291 291 291 294 294 287 282 275 275 280 286 288 289 294 295 294 293 294 289 284 279 281 279 279 273 275 281 285 288 291 294 294 294 294 294 294 292 292 292 290 290 291 287 286 286 285 284 281 274 262 247 235 233 234 229 228 226 223 221 219 221 225
310 297 290 289 286 282 281 276 276 274 270 271 279 282 284 286 293 293 290 289 288 289 289 287 287 290 291 289 289 285 280 276 273 276 282 285 289 291 292 291 291 291 289 282 275 273 279 285 290 294 296 296 296 297 298 294 289 287 287 286 288 289 293 292 290 288 281 280 281 281 279 277 271 265 255 238 233 228 223 223 217 216 213 216 220
306 293 290 287 285 287 289 283 273 269 269 263 261 268 278 291 293 295 292 284 284 286 287 286 283 284 284 282 283 282 281 277 274 271 268 271 275 280 283 285 287 286 284 283 284 285 287 289 290 293 294 290 288 276 261 270 280 287 292 296 298 293 288 286 282 279 275 273 275 275 278 283 278 272 262 249 230 224 216 215 208 212 208 212 217
294 292 290 291 289 289 288 293 293 281 273 273 265 269 279 280 286 290 287 286 285 282 282 283 284 282 280 282 283 285 283 281 280 279 276 275 269 269 273 272 273 275 276 273 274 276 275 275 273 272 275 283 287 290 292 294 293 289 279 273 269 270 271 270 272 272 271 271 272 272 278 277 279 275 265 248 234 223 212 214 212 213 204 205 209
287 289 291 291 291 290 289 288 293 299 293 291 298 296 282 277 281 283 285 282 283 283 280 280 278 278 280 283 283 283 282 282 284 285 285 277 273 272 263 260 259 248 260 262 257 260 263 266 270 268 271 270 275 267 266 270 275 280 276 272 268 266 271 278 281 279 275 273 270 272 271 270 269 266 264 252 236 222 209 209 210 210 198 190 198
288 291 289 292 290 289 288 291 294 298 302 297 281 278 293 294 282 269 263 255 248 254 255 254 261 266 264 255 265 254 280 287 279 296 295 300 301 301 297 289 279 274 267 278 282 273 267 276 272 281 280 284 286 285 282 274 271 271 275 273 270 270 270 263 272 275 277 277 275 274 274 275 272 267 260 252 237 224 209 207 204 207 191 189 206
297 292 292 292 292 295 297 298 299 300 300 305 307 297 283 294 295 294 292 292 293 293 293 290 292 295 294 287 286 289 294 296 301 305 306 305 304 306 307 307 307 305 303 307 314 309 299 292 296 296 296 299 294 291 287 284 282 281 275 280 281 277 270 268 265 272 274 274 276 276 272 275 274 272 265 249 233 217 205 202 200 192 188 190 207
296 293 299 294 298 302 302 303 302 301 301 305 305 306 309 306 304 301 296 297 300 302 302 299 300 300 301 303 304 301 300 302 304 304 305 308 310 311 310 308 307 308 312 317 321 313 311 309 302 298 293 293 289 286 286 286 282 282 283 280 276 276 278 275 275 273 274 273 273 271 275 275 276 273 262 239 225 207 193 193 189 184 189 191 205
291 293 293 293 298 299 297 299 304 305 306 305 305 307 308 311 308 308 311 309 307 306 305 306 306 307 307 306 305 303 303 304 306 309 312 313 312 311 310 308 310 314 320 330 328 321 318 311 304 297 297 292 288 287 283 281 280 279 281 281 276 272 273 272 272 273 275 278 283 285 283 282 281 275 254 226 207 197 181 184 184 187 191 195 206
280 287 287 292 292 298 301 301 303 305 309 311 310 310 309 309 310 314 318 317 312 310 310 309 310 310 310 311 309 306 308 312 314 316 316 315 315 316 317 321 327 330 334 335 327 314 310 302 295 294 293 289 288 286 283 278 277 276 270 274 277 273 271 273 276 275 275 275 274 271 269 272 276 272 241 209 189 191 183 184 185 184 186 192 210
269 274 285 291 296 297 299 299 301 303 300 300 298 303 301 301 303 307 312 318 318 311 307 313 316 316 314 313 314 316 319 319 319 317 318 324 331 332 334 333 332 338 343 326 315 298 299 294 291 290 290 285 283 281 279 278 278 276 273 272 270 272 269 267 267 269 270 273 271 270 274 278 280 266 226 161 158 174 185 187 180 180 186 191 201
272 282 292 297 288 292 295 295 299 298 298 299 301 301 301 305 306 307 310 311 313 315 318 318 316 320 319 321 326 327 326 325 325 327 333 339 338 340 346 341 334 334 337 326 313 308 305 305 301 298 293 292 290 286 284 281 278 276 273 273 270 266 266 265 263 264 262 260 259 259 263 270 275 262 225 166 132 155 169 175 185 180 181 187 195
275 277 281 292 290 284 291 292 293 294 296 298 301 303 305 305 305 304 303 301 304 309 311 312 310 313 319 326 328 329 328 328 334 342 344 344 344 351 344 334 330 326 324 322 317 314 312 307 307 304 304 300 298 294 292 291 288 284 278 274 274 269 268 265 266 264 263 270 277 283 285 280 277 287 319 244 185 177 166 169 176 196 192 188 191
282 281 285 286 283 281 280 283 284 294 307 311 307 302 298 296 297 298 298 301 305 304 305 312 319 317 320 301 318 324 323 337 348 349 347 346 349 350 324 324 318 318 318 319 318 311 304 301 298 297 297 297 296 294 293 290 290 286 286 282 275 273 267 266 264 260 260 262 261 258 260 261 268 268 236 267 65 173 165 164 167 185 204 198 188
272 280 271 276 280 290 287 287 301 312 310 298 293 292 294 296 298 300 302 304 305 309 311 315 317 321 326 328 326 314 323 340 343 344 345 347 345 340 334 319 319 312 311 306 307 303 300 300 302 300 299 297 296 296 293 291 289 286 286 282 274 265 274 274 272 266 256 257 263 270 274 272 256 229 198 235 224 185 170 163 170 173 187 203 194
267 293 305 310 307 302 303 310 310 309 300 296 292 296 301 304 304 302 303 303 304 304 304 307 313 321 323 323 324 323 337 346 351 346 341 340 336 331 327 323 317 315 310 308 308 309 306 306 305 303 298 297 295 292 291 289 286 283 281 278 279 276 272 266 262 255 251 246 254 256 262 271 256 223 197 202 208 188 172 160 165 176 184 189 186
288 283 290 310 310 307 310 311 306 301 295 297 298 299 303 303 303 305 306 307 306 308 307 313 319 320 321 320 319 337 347 343 337 333 331 333 335 336 333 331 329 324 322 318 317 314 311 306 303 302 300 295 296 293 294 290 292 288 285 279 272 274 274 263 256 253 247 252 256 260 261 258 240 216 195 199 202 185 176 168 177 186 187 182 169
276 285 296 306 311 313 311 303 298 289 289 291 295 301 297 299 303 305 303 298 302 304 308 311 312 314 314 323 336 345 350 335 326 325 326 327 329 331 331 329 327 323 319 316 313 312 310 309 308 307 305 301 299 301 303 306 307 310 306 293 273 266 268 266 256 244 244 246 252 256 258 252 229 203 205 192 150 140 133 140 146 146 139 134 134
286 293 306 303 308 304 303 295 288 290 290 290 296 297 298 302 303 301 300 303 302 305 312 313 312 312 319 331 341 346 347 322 320 318 321 324 325 325 324 321 319 316 315 314 315 314 313 313 312 313 315 317 318 318 320 321 323 322 318 317 305 277 265 265 255 250 250 252 262 266 261 235 203 180 150 140 136 139 135 134 134 136 133 133 130
281 292 297 304 302 298 294 289 289 287 288 292 295 299 305 305 301 299 300 297 301 309 315 316 317 321 322 332 339 342 337 325 325 326 324 326 324 324 323 324 320 318 315 311 309 309 309 311 315 317 319 321 324 325 326 327 325 328 326 329 335 339 337 329 320 306 285 272 259 224 168 106 93 116 137 132 123 115 121 122 123 124 125 125 124
287 298 298 293 296 294 286 283 281 278 280 294 307 311 307 302 299 301 303 307 313 315 314 313 315 323 323 331 337 340 337 336 331 332 329 328 327 326 326 322 324 322 323 321 320 320 319 319 322 322 321 322 329 330 327 328 331 331 329 328 335 343 342 343 339 339 350 9 21 19 23 81 104 97 92 105 115 120 119 119 120 120 121 118 118
296 302 305 308 295 287 283 279 278 282 293 307 306 302 303 303 306 309 311 314 316 314 313 315 322 323 326 331 335 333 330 329 330 330 330 329 327 326 326 327 328 327 326 326 326 326 327 328 326 328 328 328 332 340 340 337 339 340 341 341 331 334 337 339 341 335 338 34 54 52 41 31 44 60 72 74 87 99 103 107 112 115 111 115 119
292 306 308 297 295 287 286 280 282 293 302 311 314 313 307 306 305 305 310 309 308 309 314 318 322 323 326 325 325 328 327 328 327 325 323 326 326 325 325 327 327 328 327 327 326 329 330 332 334 333 334 333 332 336 347 346 346 347 350 353 355 349 344 346 349 357 357 358 14 51 79 73 64 59 66 76 77 85 91 93 93 97 105 107 109
293 291 280 288 282 283 284 285 291 292 307 313 307 304 305 308 306 308 307 306 308 309 313 317 325 328 327 325 324 323 325 326 322 324 323 321 320 320 322 324 326 328 329 328 329 331 333 335 337 337 338 339 338 336 344 353 355 355 357 360 360 3 359 357 360 3 3 4 7 21 39 71 81 91 76 74 75 83 85 89 95 102 100 108 110
275 270 273 271 276 277 277 279 289 306 310 305 300 298 302 304 308 306 306 304 306 310 317 321 324 321 321 319 318 319 319 317 316 315 318 319 322 321 322 324 327 327 326 328 332 334 335 335 335 337 340 342 344 346 345 354 358 3 5 7 8 10 11 10 7 9 6 10 12 21 31 39 46 55 73 87 91 92 93 90 92 91 101 102 105
235 246 267 269 267 268 273 281 290 299 299 302 304 305 301 303 301 300 297 299 305 311 315 318 318 318 317 314 316 316 314 316 317 320 321 321 322 323 323 322 324 326 328 330 331 334 334 334 335 338 340 341 345 348 350 354 2 4 8 11 13 13 16 20 19 15 17 19 17 21 34 46 52 57 59 67 72 81 91 95 99 101 101 99 100
228 253 258 267 268 271 273 277 284 287 289 292 295 297 298 298 298 296 299 303 308 310 311 310 314 315 314 317 321 320 321 321 321 320 319 318 320 321 322 324 327 329 332 331 331 331 333 334 337 338 341 342 345 348 350 356 4 7 10 14 19 20 19 20 24 24 23 19 21 23 28 41 47 51 53 61 69 79 82 89 91 96 96 97 96
255 264 262 262 265 268 275 280 284 279 279 282 280 281 291 294 288 291 293 300 304 307 310 313 314 315 314 307 306 309 311 310 310 310 312 315 318 320 322 326 328 329 331 332 332 333 334 336 338 338 340 342 343 346 353 356 4 7 13 17 22 27 29 28 26 24 30 33 26 28 34 34 44 46 49 52 60 64 74 76 78 79 84 89 96